OneWeb SL0634

operational
NORAD ID: 56075 Int'l Des: 2023-043 Owner: ONEWEBN Country: UK Constellation: oneweb
LEOCIRCULARPOLARONEWEB_TYPE

关于 OneWeb SL0634

正在加载描述...

实时位置

正在加载3D地球...

即将过境

高度历史

Altitude vs Time

uPlot chart will show altitude changes over time

两行轨道根数

1 56075U 23043AF 25304.74874885 .00000098 00000-0 22603-3 0 9993
2 56075 87.8962 304.8202 0002078 83.4013 276.7354 13.15548547126365
Epoch: Oct 31, 2025 • Age: 26 hours

当前状态

高度 1213.9 km
速度 7.25 km/s
星下点 83.33°N, 17.77°W
发射日期 Mar 26, 2023
运行时间 2.6 years
类型 internet

技术详情

分类 Payload
质量 148.00 kg
干质量 140.00 kg
总质量 148.00 kg
长度 1.30 m
直径 1.00 m
跨度 5.00 m
形状 Trapezoid+2 pan
制造商 ONEWUS
平台类型 ARROW
阶段状态 In Orbit
所有者/国家 ONEWEBN/UK

大型星座

Loading constellations...